, MS

(GMT )
Nakika

Weather History for KIKT - August, 2014

Change the Weather History Date:

Sunday, August 31, 2014

  Actual Average Record
Temperature  
Mean Temperature 86 °F -  
Max Temperature 87 °F - - ()
Min Temperature 84 °F - - ()
Cooling Degree Days 20    
Growing Degree Days 36 (Base 50)    
Moisture  
Dew Point 77 °F    
Average Humidity 75    
Maximum Humidity 84    
Minimum Humidity 66    
Precipitation  
Precipitation 0.00 in - - ()
Sea Level Pressure  
Sea Level Pressure 30.06 in    
Wind  
Wind Speed 14 mph (SE)    
Max Wind Speed 20 mph    
Max Gust Speed 16 mph    
Visibility 9 miles    
Events      
Averages and records for this station are not official NWS values.
T = Trace of Precipitation, MM = Missing Value Source: NWS Daily Summary

Daily Weather History Graph

Daily Weather History Graph

Search for Another Location

Airport or City:

Trip Planner

Search our weather history database for the weather conditions in past years. The results will help you decide how hot, cold, wet, or windy it might be!

Date:

Astronomy

Aug. 31, 2014 Rise Set
Actual Time 6:30 AM CDT 7:15 PM CDT
Civil Twilight 6:06 AM CDT 7:39 PM CDT
Nautical Twilight 5:38 AM CDT 8:07 PM CDT
Astronomical Twilight 5:09 AM CDT 8:36 PM CDT
Moon 11:47 AM CDT (8/31) 11:01 PM CDT (8/31)
Length of Visible Light 13h 32m
Length of Day
12h 44m
Waxing Crescent, 32% of the Moon is Illuminated
Aug 31
Waxing Crescent
Sep 2
First Quarter
Sep 8
Full
Sep 15
Last Quarter
Sep 24
New

Hourly Weather History & Observations

Time (CDT) Temp. Heat Index Dew Point Humidity Pressure Visibility Wind Dir Wind Speed Gust Speed Precip Events Conditions
12:15 AM 84.2 °F 94.1 °F 77.0 °F 79% 30.06 in 8.0 mi SSE 8.1 mph - N/A   Clear
12:35 AM 84.2 °F 94.1 °F 77.0 °F 79% 30.06 in 8.0 mi SSE 8.1 mph 13.8 mph N/A   Clear
12:55 AM 84.2 °F 94.1 °F 77.0 °F 79% 30.06 in 8.0 mi SSE 6.9 mph 13.8 mph N/A   Clear
1:15 AM 84.2 °F 94.1 °F 77.0 °F 79% 30.06 in 8.0 mi Variable 8.1 mph 15.0 mph N/A   Clear
1:35 AM 84.2 °F 94.1 °F 77.0 °F 79% 30.05 in 9.0 mi SSE 8.1 mph 16.1 mph N/A   Clear
1:55 AM 84.2 °F 94.1 °F 77.0 °F 79% 30.05 in 9.0 mi SSE 8.1 mph 15.0 mph N/A   Clear
2:15 AM 84.2 °F 94.1 °F 77.0 °F 79% 30.05 in 9.0 mi SSE 9.2 mph - N/A   Clear
2:35 AM 84.2 °F 94.1 °F 77.0 °F 79% 30.05 in 9.0 mi SSE 9.2 mph 15.0 mph N/A   Clear
2:55 AM 84.2 °F 94.1 °F 77.0 °F 79% 30.04 in 9.0 mi SE 16.1 mph - N/A   Clear
3:15 AM 84.2 °F 94.1 °F 77.0 °F 79% 30.04 in 9.0 mi SE 16.1 mph - N/A   Clear
3:35 AM 84.2 °F 94.1 °F 77.0 °F 79% 30.03 in 9.0 mi SSE 15.0 mph - N/A   Partly Cloudy
3:55 AM 84.2 °F 96.1 °F 78.8 °F 84% 30.03 in 9.0 mi SE 15.0 mph - N/A   Clear
4:15 AM 84.2 °F 94.1 °F 77.0 °F 79% 30.02 in 8.0 mi SE 17.3 mph - N/A   Clear
4:35 AM 84.2 °F 94.1 °F 77.0 °F 79% 30.03 in 9.0 mi SE 18.4 mph - N/A   Clear
4:55 AM 84.2 °F 96.1 °F 78.8 °F 84% 30.03 in 8.0 mi SE 16.1 mph - N/A   Clear
5:15 AM 84.2 °F 94.1 °F 77.0 °F 79% 30.03 in 9.0 mi SE 18.4 mph - N/A   Clear
5:35 AM 84.2 °F 94.1 °F 77.0 °F 79% 30.04 in 9.0 mi SE 15.0 mph - N/A   Clear
5:55 AM 84.2 °F 94.1 °F 77.0 °F 79% 30.05 in 8.0 mi SE 15.0 mph - N/A   Partly Cloudy
6:15 AM 84.2 °F 94.1 °F 77.0 °F 79% 30.05 in 9.0 mi SE 17.3 mph - N/A   Partly Cloudy
6:35 AM 84.2 °F 94.1 °F 77.0 °F 79% 30.05 in 8.0 mi SE 16.1 mph - N/A   Clear
6:55 AM 84.2 °F 94.1 °F 77.0 °F 79% 30.06 in 8.0 mi SE 13.8 mph - N/A   Clear
7:15 AM 84.2 °F 94.1 °F 77.0 °F 79% 30.06 in 8.0 mi ESE 12.7 mph - N/A   Clear
7:35 AM 86.0 °F 96.9 °F 77.0 °F 74% 30.06 in 8.0 mi SE 15.0 mph - N/A   Partly Cloudy
7:55 AM 86.0 °F 96.9 °F 77.0 °F 74% 30.06 in 7.0 mi SE 12.7 mph - N/A   Partly Cloudy
8:15 AM 86.0 °F 96.9 °F 77.0 °F 74% 30.07 in 8.0 mi SE 13.8 mph - N/A   Partly Cloudy
8:35 AM 86.0 °F 95.1 °F 75.2 °F 70% 30.08 in 9.0 mi SE 13.8 mph - N/A   Scattered Clouds
8:55 AM 87.8 °F 97.6 °F 75.2 °F 66% 30.07 in 9.0 mi SE 13.8 mph - N/A   Partly Cloudy
9:15 AM 87.8 °F 97.6 °F 75.2 °F 66% 30.08 in 9.0 mi SE 13.8 mph - N/A   Clear
9:35 AM 87.8 °F 97.6 °F 75.2 °F 66% 30.09 in 9.0 mi ESE 13.8 mph - N/A   Clear
9:55 AM 87.8 °F 99.7 °F 77.0 °F 70% 30.09 in 9.0 mi East 13.8 mph - N/A   Clear
10:15 AM 87.8 °F 99.7 °F 77.0 °F 70% 30.10 in 9.0 mi ESE 16.1 mph - N/A   Scattered Clouds
10:35 AM 87.8 °F 99.7 °F 77.0 °F 70% 30.10 in 9.0 mi ESE 17.3 mph - N/A   Mostly Cloudy
11:15 AM 87.8 °F 99.7 °F 77.0 °F 70% 30.10 in 9.0 mi ESE 16.1 mph - N/A   Partly Cloudy
12:15 PM 87.8 °F 99.7 °F 77.0 °F 70% 30.09 in 9.0 mi ESE 17.3 mph - N/A   Clear
12:35 PM 87.8 °F 99.7 °F 77.0 °F 70% 30.09 in 9.0 mi ESE 18.4 mph - N/A   Clear
12:55 PM 87.8 °F 99.7 °F 77.0 °F 70% 30.08 in - ESE 19.6 mph - N/A   Clear
1:15 PM 87.8 °F 99.7 °F 77.0 °F 70% 30.08 in 9.0 mi ESE 17.3 mph - N/A   Clear
1:35 PM 87.8 °F 99.7 °F 77.0 °F 70% 30.08 in 8.0 mi ESE 18.4 mph - N/A   Clear
1:55 PM 87.8 °F 99.7 °F 77.0 °F 70% 30.07 in 9.0 mi ESE 18.4 mph - N/A   Clear
2:15 PM 87.8 °F 99.7 °F 77.0 °F 70% 30.06 in 8.0 mi East 18.4 mph - N/A   Clear
2:35 PM 87.8 °F 99.7 °F 77.0 °F 70% 30.06 in 9.0 mi East 18.4 mph - N/A   Clear
2:55 PM 87.8 °F 99.7 °F 77.0 °F 70% 30.06 in 8.0 mi ESE 18.4 mph - N/A   Clear
3:15 PM 87.8 °F 99.7 °F 77.0 °F 70% 30.06 in 9.0 mi ESE 17.3 mph - N/A   Clear
3:35 PM 87.8 °F 99.7 °F 77.0 °F 70% 30.05 in 9.0 mi ESE 16.1 mph - N/A   Clear
3:55 PM 87.8 °F 97.6 °F 75.2 °F 66% 30.05 in 8.0 mi SE 18.4 mph - N/A   Scattered Clouds
4:15 PM 87.8 °F 99.7 °F 77.0 °F 70% 30.04 in 9.0 mi ESE 17.3 mph - N/A   Partly Cloudy
4:35 PM 86.0 °F 96.9 °F 77.0 °F 74% 30.04 in 9.0 mi ESE 18.4 mph - N/A   Clear
4:55 PM 86.0 °F 96.9 °F 77.0 °F 74% 30.04 in 9.0 mi East 16.1 mph - N/A   Clear
5:15 PM 86.0 °F 96.9 °F 77.0 °F 74% 30.04 in 9.0 mi ESE 18.4 mph - N/A   Clear
5:35 PM 86.0 °F 96.9 °F 77.0 °F 74% 30.04 in 9.0 mi East 18.4 mph - N/A   Clear
5:55 PM 86.0 °F 96.9 °F 77.0 °F 74% 30.04 in 9.0 mi ESE 18.4 mph - N/A   Clear
6:15 PM 86.0 °F 95.1 °F 75.2 °F 70% 30.04 in 9.0 mi ESE 19.6 mph - N/A   Clear
6:35 PM 86.0 °F 96.9 °F 77.0 °F 74% 30.04 in 9.0 mi ESE 17.3 mph - N/A   Clear
7:15 PM 84.2 °F 94.1 °F 77.0 °F 79% 30.05 in 10.0 mi ESE 18.4 mph - N/A   Clear
7:35 PM 84.2 °F 94.1 °F 77.0 °F 79% 30.05 in 10.0 mi ESE 17.3 mph - N/A   Clear
7:55 PM 84.2 °F 94.1 °F 77.0 °F 79% 30.05 in 10.0 mi ESE 16.1 mph - N/A   Clear
8:15 PM 84.2 °F 94.1 °F 77.0 °F 79% 30.06 in 10.0 mi SE 17.3 mph - N/A   Clear
8:35 PM 84.2 °F 94.1 °F 77.0 °F 79% 30.06 in 10.0 mi SE 16.1 mph - N/A   Clear
8:55 PM 84.2 °F 94.1 °F 77.0 °F 79% 30.06 in 10.0 mi SE 17.3 mph - N/A   Clear
9:15 PM 84.2 °F 94.1 °F 77.0 °F 79% 30.07 in 10.0 mi SE 17.3 mph - N/A   Clear
9:35 PM 84.2 °F 94.1 °F 77.0 °F 79% 30.07 in 10.0 mi SE 17.3 mph - N/A   Clear
9:55 PM 84.2 °F 94.1 °F 77.0 °F 79% 30.07 in 10.0 mi ESE 18.4 mph - N/A   Scattered Clouds
10:15 PM 86.0 °F 96.9 °F 77.0 °F 74% 30.07 in 10.0 mi SE 19.6 mph - N/A   Scattered Clouds
10:35 PM 86.0 °F 96.9 °F 77.0 °F 74% 30.07 in 10.0 mi SE 18.4 mph - N/A   Scattered Clouds
11:15 PM 84.2 °F 94.1 °F 77.0 °F 79% 30.06 in 10.0 mi SE 13.8 mph - N/A   Partly Cloudy
11:35 PM 84.2 °F 94.1 °F 77.0 °F 79% 30.06 in 10.0 mi SE 18.4 mph - N/A   Clear